Вернуться в каталог

YAOGAN 27

АктивенВоенныеSSO
NORAD 40878·PAYLOAD·🇨🇳 China

Запущен Aug 27, 2015 с Taiyuan Satellite Launch Center

Loading…

Ближайшие Пролёты (ближайшие 24 часа)

TLE

СвежийSource: Space-Track

Эпоха: Sep 14, 2026, 13:56 UTC

1 40878U 15040A   26257.58088823 -.00000455  00000-0 -10855-2 0  9998
2 40878 100.1263 240.1193 0008525  13.1422 346.9913 13.16072718529428

Отслеживайте YAOGAN 27 в реальном времени с AllMySat

Download on the App Store